Location: Devore Heights
(34.2372°N, 117.4156°W)
Time: 09:22:11
(UTC+00:00)

Altair - Pass Details

Date: 22 September 2024
Orbit: 1501 x 1682 km, 47.2° (Epoch: 07 October)

Event Time Altitude Azimuth Distance (km) Brightness Sun altitude
Rises 16:58:31 0° 295° (WNW) 4,935 9.7 38.6°
Reaches altitude 10° 17:02:39 10° 281° (W) 3,936 9.3 39.3°
Maximum altitude 17:09:43 22° 236° (SW) 3,050 9.1 40.5°
Drops below altitude 10° 17:16:43 10° 190° (S) 3,855 10.0 41.7°
Sets 17:20:45 0° 176° (S) 4,809 10.6 42.3°
